Location: Hesters Ferry
(33.9426°N, 82.5501°W)
Time: 18:40:01
(UTC+00:00)

ARIANE 6 FM1 Upper Stage - Pass Details

Date: 18 June 2025
Orbit: 528 x 612 km, 62.0° (Epoch: 19 July)

Event Time Altitude Azimuth Distance (km) Brightness Sun altitude
Rises 02:01:24 0° 326° (NW) 2,737 7.8 -14.0°
Reaches altitude 10° 02:03:36 10° 325° (NW) 1,852 6.6 -14.3°
Maximum altitude 02:07:47 78° 240° (WSW) 587 2.7 -15.0°
Enters shadow 02:10:11 25° 156° (SSE) 1,174 3.7 -15.3°
